Location: Beuerbach
(48.1459°N, 10.9174°E)
Time: 02:26:38
(UTC+00:00)

Cosmos 968 Rocket - Pass Details

Date: 23 May 2024
Orbit: 738 x 769 km, 74.0° (Epoch: 19 June)

Event Time Altitude Azimuth Distance (km) Brightness Sun altitude
Exits shadow 02:02:16 16° 218° (SW) 1,874 4.8 -11.5°
Maximum altitude 02:06:18 61° 296° (WNW) 846 3.7 -11.1°
Drops below altitude 10° 02:11:24 10° 17° (NNE) 2,271 7.1 -10.5°
Sets 02:13:49 0° 21° (NNE) 3,204 8.2 -10.2°
